Temp_Advection
nan nan nan nan nan nan nan nan nan nan nan nan nan nan nan nan nan nan nan nan nan nan nan nan nan nan nan nan nan nan nan nan nan nan nan nan nan nan nan nan nan nan nan
nan 1 1 1 1 0 -0 -0 -0 -0 0 0 -0 0 1 1 -0 0 0 0 1 0 1 -0 0 0 0 1 0 -0 -0 -1 -0 0 -0 -0 0 0 0 0 1 1 nan
nan 0 1 0 1 0 -0 -0 1 1 1 0 1 1 -0 0 1 1 -1 -1 -1 0 1 0 -0 0 1 0 -0 -0 -0 -1 -0 -0 -0 -0 -0 -0 0 0 0 0 nan
nan 0 0 0 1 1 0 1 2 1 0 0 1 -1 1 1 0 0 -1 -1 -0 1 0 0 0 0 0 -0 -0 -0 0 0 0 -1 -0 -0 -0 -0 -0 0 0 0 nan
nan -0 0 0 0 1 1 1 1 0 0 0 0 0 1 -1 1 -0 -1 1 0 -0 -0 0 0 0 -0 -0 -0 0 -0 0 0 -0 -0 -0 -0 -0 -0 -0 -0 -0 nan
nan -0 -0 0 0 1 1 1 0 -0 0 0 0 0 0 -0 1 -1 -0 -1 -1 -0 -0 0 0 0 0 0 -0 -0 0 0 0 0 0 0 0 -0 -0 -0 -0 0 nan
nan -0 -0 0 0 1 0 -0 -0 0 0 0 1 1 0 1 1 -0 -0 -2 -1 -1 -1 0 0 -0 -0 0 0 0 0 0 0 0 1 0 0 0 -0 -0 -0 0 nan
nan -1 -1 0 1 0 0 -0 0 0 0 0 0 0 0 1 -0 1 0 -1 -1 -0 0 0 0 0 0 0 0 0 0 0 0 0 -0 -0 0 -0 -0 0 0 -1 nan
nan -1 -0 0 1 0 0 0 0 0 0 0 0 0 0 -0 0 1 0 -0 0 1 1 1 1 1 1 0 0 0 0 0 0 0 0 0 0 0 0 0 0 0 nan
nan -1 -1 -0 0 1 1 0 0 0 0 0 -0 0 0 0 0 -0 -1 0 1 1 0 0 1 1 0 0 0 -0 0 0 0 0 0 0 0 0 -0 -0 0 0 nan
nan -1 -1 -1 -0 0 0 1 1 0 0 0 -0 0 0 0 -0 0 1 -0 -0 0 0 1 1 1 1 1 -0 -0 0 0 0 0 0 0 0 -0 0 0 0 0 nan
nan -1 -1 -1 -0 -0 0 -0 0 1 0 -0 0 0 0 -0 0 -0 -0 -0 0 1 0 0 0 0 1 0 -0 0 0 0 0 0 0 0 0 0 0 0 1 1 nan
nan -1 -1 -1 -1 -0 0 0 -0 -0 1 0 0 0 0 0 -0 -0 0 0 0 0 -0 0 0 0 0 -0 0 0 0 0 0 0 0 1 1 1 1 1 1 1 nan
nan -1 -1 -1 -0 0 0 0 0 -0 0 1 1 0 0 0 0 0 0 -0 -0 0 0 -0 -0 -0 -0 -0 0 0 -0 1 1 0 0 1 1 2 2 1 1 1 nan
nan -1 -1 -1 -1 -0 -0 0 -0 -0 -0 0 0 0 0 0 0 0 0 0 0 0 -0 -0 0 1 0 0 0 0 0 1 1 0 0 1 2 1 0 0 0 0 nan
nan -1 -1 -1 -1 -0 -0 -0 -0 -0 -0 0 0 0 0 0 0 0 0 0 0 0 0 0 0 0 0 0 0 0 0 1 0 0 0 1 1 1 1 0 1 0 nan
nan -1 -1 -0 0 -0 -0 -0 -0 -0 -0 -0 0 0 0 0 0 0 0 0 0 0 0 0 0 0 0 0 0 0 0 0 0 0 0 1 1 1 1 1 0 0 nan
nan -0 -0 -0 0 -0 -0 -0 -0 -0 -0 -0 0 -0 -0 -0 0 0 0 0 0 0 0 0 0 0 0 0 0 0 0 0 0 0 0 1 1 1 1 1 0 1 nan
nan -0 0 -0 -0 -0 -0 -0 -1 -1 -0 -0 -0 -0 -0 -0 -0 0 0 0 0 0 0 0 0 0 0 0 0 0 0 0 0 0 1 1 1 1 1 0 0 1 nan
nan -0 -0 -0 -0 -1 -0 -1 -1 -1 -1 -1 -1 -0 -0 -0 -0 -0 0 0 0 -0 -0 0 0 0 0 0 0 -0 0 0 0 1 1 1 1 1 0 0 1 1 nan
nan -0 -0 -0 -0 -1 -1 -1 -0 -0 -1 -1 -0 -0 -0 -0 -0 -0 -0 -0 -0 -0 -0 -0 -0 0 -0 -0 -0 0 0 0 0 0 1 1 1 0 0 1 1 1 nan
nan -0 -0 -0 -0 -1 -1 -0 -0 -0 0 -1 -0 -0 -0 -0 0 0 -0 -0 -0 -0 -0 -0 -0 0 -0 -0 0 0 0 0 0 0 0 1 1 1 1 1 1 1 nan
nan -0 -0 -0 -0 -0 -0 -0 -0 -0 -0 -0 -1 -0 -0 -0 -0 0 0 -0 -0 -0 -0 -0 -0 0 0 0 0 0 0 1 1 0 0 1 1 1 1 1 1 1 nan
nan -0 -0 -0 -0 0 0 0 -1 -1 -1 -0 -1 -1 -1 -1 -0 -0 0 -0 -1 -0 -0 -0 -0 -0 -0 0 0 0 1 1 0 1 1 1 1 1 1 2 1 1 nan
nan -0 -0 -0 0 0 0 0 -0 -1 -1 -1 -0 -1 -1 -1 -1 -0 -0 -0 -0 -1 -1 -0 -0 -0 0 0 -0 -0 0 0 1 1 1 1 0 1 1 1 1 1 nan
nan nan nan nan nan nan nan nan nan nan nan nan nan nan nan nan nan nan nan nan nan nan nan nan nan nan nan nan nan nan nan nan nan nan nan nan nan nan nan nan nan nan nan
Wind_Speed
26 25 25 24 27 32 32 33 31 28 31 35 40 40 29 31 28 28 27 30 32 31 29 26 25 26 26 24 24 23 22 21 22 22 18 13 14 16 19 19 17 16 13
24 23 23 25 29 31 36 36 35 35 35 35 38 43 41 37 34 32 31 29 31 32 31 30 28 27 25 24 25 26 25 23 23 20 17 10 10 13 15 18 16 19 18
18 17 20 24 29 30 32 34 34 38 35 36 35 32 41 37 39 37 35 34 31 33 34 33 31 29 27 26 27 28 28 27 24 17 9 8 7 15 13 15 16 20 22
12 15 17 19 27 28 26 29 28 34 35 38 33 37 43 42 39 41 41 37 35 34 35 32 30 29 29 28 29 27 28 26 28 25 20 13 12 10 10 17 15 15 16
8 9 11 14 21 24 24 25 25 31 34 32 35 36 39 45 42 40 40 37 37 35 33 32 31 30 29 28 28 29 29 27 26 27 27 17 11 9 10 13 19 19 18
8 3 1 5 13 15 18 24 24 31 35 38 40 43 40 44 48 45 41 42 41 38 35 33 30 29 29 29 28 29 28 29 26 26 27 26 20 17 12 8 18 21 20
13 11 9 7 5 10 14 15 12 13 19 27 45 48 47 44 46 46 47 44 41 40 37 35 33 32 30 29 28 28 29 30 28 27 29 26 23 14 14 10 12 15 15
15 14 14 7 6 9 9 11 13 7 18 21 31 35 33 35 39 41 42 42 40 38 38 35 33 31 31 31 29 29 30 31 32 29 28 27 24 23 20 15 13 13 15
17 17 17 14 9 5 7 13 7 9 8 11 24 28 36 37 38 34 25 34 36 36 36 36 34 34 32 31 32 32 32 31 31 32 31 30 27 28 24 23 20 16 13
20 20 20 18 15 13 9 8 13 14 9 3 7 16 22 26 35 31 25 29 29 29 32 33 33 33 33 32 33 32 31 31 31 32 32 32 32 30 28 27 25 23 17
20 20 20 20 18 16 14 12 9 12 14 12 6 8 10 21 10 26 30 24 22 24 26 27 29 31 33 33 33 34 33 32 32 32 32 32 33 32 31 28 28 27 25
19 20 21 23 17 16 15 14 11 7 9 18 16 12 14 2 10 3 7 4 25 28 23 24 24 27 31 32 32 33 35 33 33 33 32 32 33 33 32 31 31 29 26
20 20 22 23 24 21 16 16 15 8 7 8 10 11 13 16 19 9 4 7 6 5 8 15 12 20 31 35 33 32 32 34 35 34 33 32 33 33 34 34 30 28 26
20 21 22 22 21 23 20 18 17 16 9 8 10 8 10 9 18 19 18 14 9 7 9 6 11 9 13 18 21 32 32 38 39 35 34 32 34 35 31 30 32 29 28
22 22 22 22 20 21 21 19 19 17 14 10 6 8 8 9 9 11 12 12 16 19 20 19 20 22 25 29 29 34 35 38 40 40 39 41 40 35 30 34 33 27 30
23 22 21 21 20 20 21 19 18 21 15 13 11 7 3 6 8 9 11 11 9 9 13 14 15 18 19 19 19 20 25 30 37 40 39 38 39 36 34 31 26 26 28
22 23 22 21 20 19 19 18 19 15 13 14 12 9 7 5 4 5 9 12 14 14 14 16 18 19 18 17 16 18 21 21 24 26 28 33 33 32 30 26 25 24 24
23 23 23 21 19 19 16 15 13 12 10 10 11 9 8 5 3 5 6 7 9 13 13 12 14 17 19 17 17 19 19 20 20 19 22 24 28 28 29 29 27 26 24
21 22 21 19 18 17 17 15 14 11 11 12 10 9 9 7 3 2 4 7 9 11 14 16 15 17 17 19 19 20 20 21 18 20 19 22 23 27 31 31 28 27 26
21 22 20 18 18 17 15 16 15 15 15 15 13 10 9 7 6 4 4 7 9 10 11 12 15 16 15 15 17 18 17 17 18 21 21 21 25 29 28 29 27 27 28
23 21 20 20 20 20 17 18 18 17 18 17 15 12 11 10 8 5 4 4 6 9 11 11 10 12 13 14 15 15 13 14 18 19 23 25 27 28 29 28 27 27 27
20 20 18 19 19 20 20 18 17 18 16 17 16 15 15 13 11 9 5 5 7 8 9 10 11 12 13 14 15 15 14 15 15 17 21 23 27 29 31 30 29 28 27
19 19 19 18 18 19 19 20 21 21 18 16 16 16 15 15 14 13 10 7 6 8 9 9 10 11 12 14 15 15 16 15 15 14 15 20 26 29 30 29 29 26 24
19 19 19 19 20 21 20 19 20 21 21 19 17 16 16 16 15 14 12 11 9 7 8 9 9 9 10 10 11 14 15 15 15 16 14 17 25 28 28 28 26 25 24
17 17 17 18 20 21 21 21 21 21 21 20 19 17 15 16 16 14 14 12 9 10 11 11 12 12 9 7 9 12 13 14 13 13 16 23 29 30 29 28 28 28 26
16 16 16 16 18 19 20 20 20 20 20 21 20 19 18 16 16 15 15 13 12 10 13 14 15 14 13 10 8 9 12 12 11 14 21 27 31 32 32 33 32 27 24
Wind_Direction
256 247 241 234 227 223 216 208 213 220 214 217 214 215 225 211 202 212 215 210 209 208 203 207 202 194 195 194 192 191 187 182 182 179 175 176 179 184 185 184 185 187 187
260 252 240 229 218 220 221 219 215 215 216 220 228 231 231 219 215 220 217 212 207 207 204 204 204 198 196 195 193 196 187 191 192 183 168 156 174 184 185 190 199 200 202
261 251 242 230 217 215 222 224 226 220 217 227 230 230 222 224 228 217 216 213 207 208 204 202 203 201 201 199 199 201 201 197 189 190 162 159 181 190 196 194 199 212 214
267 256 244 234 216 215 222 227 225 216 217 229 226 220 225 209 217 219 220 217 211 209 207 205 204 206 203 206 206 206 208 206 196 190 191 180 199 173 176 205 203 204 208
297 264 242 238 218 214 214 227 229 221 223 218 224 222 212 216 217 210 219 214 208 210 207 209 207 209 209 212 210 209 209 212 211 207 204 197 200 179 196 188 205 206 209
10 22 277 213 211 206 209 214 215 217 225 232 234 221 220 215 214 219 215 212 211 210 210 213 211 212 213 215 214 214 213 215 216 215 219 215 202 199 186 201 211 210 214
40 50 57 97 185 203 211 212 221 240 248 244 233 223 209 224 211 215 216 213 210 210 212 214 214 215 216 218 219 218 217 217 220 221 220 221 218 225 211 206 195 193 219
44 42 38 80 137 172 198 229 236 248 227 219 204 190 189 193 207 214 213 216 216 217 217 216 218 219 221 219 221 221 222 221 222 222 223 226 222 227 226 229 217 180 225
38 38 33 55 77 124 173 198 227 233 229 240 226 225 215 219 215 209 194 211 214 217 220 218 220 221 223 222 222 224 225 226 227 229 230 231 231 234 232 236 240 234 222
34 34 31 40 52 65 90 195 205 206 209 175 336 240 227 223 225 210 197 208 207 213 220 221 222 224 225 225 226 228 231 231 232 233 233 234 236 237 239 240 242 244 241
30 30 29 34 46 46 53 78 170 201 204 184 219 266 247 211 213 217 210 214 210 217 223 224 223 223 225 228 227 230 231 231 234 236 235 235 238 240 241 242 242 243 239
31 30 28 26 37 43 44 42 59 107 180 205 202 219 221 221 193 25 317 207 232 229 222 227 231 231 230 228 229 230 232 234 236 239 239 236 238 239 244 244 243 244 247
26 26 27 27 31 32 43 56 44 45 93 192 198 191 208 211 235 247 259 235 214 218 228 217 243 240 237 233 231 234 234 237 238 240 243 243 242 242 241 242 242 240 252
23 20 21 18 30 37 39 47 59 42 45 121 145 178 180 196 205 215 217 201 223 239 233 250 224 247 250 249 245 243 244 241 238 238 239 240 243 243 241 244 242 256 242
20 17 15 12 16 29 36 43 45 52 32 48 120 143 166 157 147 170 188 192 205 213 208 220 223 222 227 233 236 235 238 240 237 234 237 244 242 244 243 242 251 238 242
12 11 11 10 8 18 23 35 43 39 25 48 66 76 148 205 199 201 198 201 205 205 209 214 221 226 227 237 238 246 242 238 238 242 246 246 249 249 246 246 230 240 244
4 4 5 5 6 9 11 24 32 31 33 33 47 64 83 116 149 173 202 209 215 212 224 231 234 240 239 236 235 240 245 245 245 246 249 249 248 243 237 224 231 224 227
0 0 360 6 7 5 8 21 20 14 13 33 37 37 37 65 113 179 189 204 214 216 221 225 236 240 238 236 244 245 248 244 244 245 247 246 242 234 225 222 217 224 232
359 359 359 8 8 5 7 15 7 6 4 11 21 32 34 22 358 245 225 227 231 235 239 241 238 243 246 244 237 245 251 247 242 246 241 239 232 225 222 219 223 219 205
2 357 3 8 10 7 5 9 6 359 359 359 4 5 8 15 5 323 231 212 231 239 241 239 239 239 239 239 244 249 243 242 242 241 236 232 228 228 225 224 222 214 212
358 355 1 9 8 6 7 7 359 355 356 349 347 350 352 349 346 335 309 278 243 239 240 238 246 249 245 236 242 249 243 246 247 243 241 235 228 229 227 223 219 218 220
356 356 360 4 4 8 6 2 360 350 352 345 342 346 343 340 331 327 318 291 264 246 238 238 242 246 244 244 243 248 245 246 247 248 247 240 235 226 220 215 212 218 215
351 352 357 3 6 9 6 0 358 350 352 349 348 342 338 333 327 327 319 309 278 256 244 243 240 240 238 236 235 232 232 235 233 241 243 241 229 223 217 211 215 212 215
347 348 353 358 3 9 8 0 355 353 351 348 354 349 341 333 327 324 315 311 305 290 276 266 257 249 251 249 235 232 239 236 233 233 235 234 220 218 211 207 207 208 210
338 343 348 351 358 6 7 3 359 354 346 350 351 350 348 344 336 325 317 304 291 290 281 269 262 259 252 261 264 259 255 256 254 235 214 202 207 208 200 199 201 201 203
336 342 347 350 356 359 360 359 357 351 351 350 350 347 346 341 334 329 322 314 306 289 272 266 262 254 249 243 240 252 256 258 254 232 218 210 210 205 198 200 199 199 199
Height
1439 1443 1446 1448 1450 1452 1457 1463 1468 1471 1476 1478 1482 1487 1492 1497 1500 1505 1507 1509 1512 1517 1520 1530 1531 1532 1536 1540 1545 1548 1551 1555 1556 1560 1564 1569 1570 1573 1575 1576 1578 1579 1581
1433 1435 1438 1442 1443 1446 1449 1455 1461 1466 1470 1474 1476 1481 1487 1492 1494 1500 1505 1507 1510 1514 1518 1522 1528 1530 1534 1537 1541 1544 1547 1552 1555 1558 1563 1568 1572 1572 1574 1576 1577 1578 1579
1428 1430 1433 1435 1438 1441 1443 1448 1453 1458 1464 1467 1471 1474 1478 1485 1489 1494 1500 1503 1507 1512 1514 1515 1523 1527 1531 1534 1537 1541 1545 1547 1554 1557 1562 1566 1567 1570 1573 1575 1576 1577 1578
1425 1426 1428 1430 1433 1437 1440 1443 1448 1453 1457 1461 1465 1466 1469 1475 1482 1488 1494 1498 1502 1507 1512 1512 1518 1523 1527 1531 1534 1538 1543 1546 1549 1554 1557 1560 1562 1566 1571 1571 1574 1575 1575
1423 1422 1424 1426 1430 1434 1438 1440 1443 1448 1451 1455 1457 1461 1465 1469 1477 1484 1488 1493 1498 1502 1508 1510 1514 1520 1523 1527 1531 1535 1539 1543 1547 1550 1554 1557 1560 1563 1564 1566 1569 1572 1573
1423 1421 1421 1424 1429 1432 1435 1436 1439 1442 1445 1448 1450 1453 1459 1462 1466 1476 1481 1486 1491 1497 1503 1507 1511 1516 1519 1524 1528 1532 1536 1539 1543 1546 1550 1554 1556 1558 1561 1563 1564 1567 1569
1426 1424 1424 1425 1429 1431 1431 1433 1435 1437 1438 1439 1441 1444 1449 1456 1462 1467 1474 1479 1486 1491 1497 1503 1506 1510 1515 1520 1524 1529 1532 1536 1539 1542 1546 1549 1553 1556 1558 1559 1561 1564 1567
1430 1429 1426 1425 1426 1427 1430 1432 1434 1435 1435 1436 1437 1439 1445 1448 1458 1463 1467 1474 1481 1486 1492 1497 1502 1507 1511 1516 1520 1524 1528 1531 1535 1539 1542 1546 1549 1551 1554 1556 1559 1562 1564
1434 1432 1429 1425 1425 1426 1428 1430 1433 1435 1436 1438 1439 1442 1444 1449 1457 1460 1461 1472 1476 1482 1487 1493 1498 1502 1506 1511 1516 1519 1523 1526 1530 1534 1538 1540 1544 1546 1549 1551 1554 1557 1558
1439 1435 1432 1429 1427 1428 1428 1430 1431 1434 1436 1437 1439 1439 1442 1447 1453 1457 1457 1474 1473 1478 1483 1488 1493 1498 1502 1506 1511 1515 1519 1522 1525 1529 1533 1536 1539 1541 1545 1546 1550 1552 1554
1443 1440 1437 1434 1432 1431 1430 1430 1431 1433 1435 1437 1438 1443 1445 1445 1449 1453 1460 1465 1468 1475 1480 1484 1489 1493 1497 1501 1505 1510 1514 1517 1520 1523 1526 1530 1533 1536 1538 1542 1545 1546 1549
1447 1445 1442 1438 1433 1432 1431 1431 1431 1433 1435 1438 1439 1441 1446 1448 1451 1451 1455 1459 1465 1472 1476 1481 1483 1489 1492 1496 1499 1504 1508 1511 1514 1517 1521 1524 1526 1529 1532 1535 1539 1541 1546
1451 1449 1447 1443 1439 1436 1435 1434 1434 1436 1436 1437 1439 1440 1444 1447 1447 1450 1458 1460 1463 1465 1471 1476 1476 1481 1485 1491 1495 1499 1501 1505 1509 1511 1515 1518 1521 1522 1525 1529 1533 1536 1539
1457 1454 1450 1448 1445 1442 1441 1439 1437 1439 1438 1438 1438 1439 1441 1443 1446 1450 1453 1456 1459 1462 1468 1469 1476 1479 1483 1486 1488 1492 1494 1497 1501 1505 1507 1510 1514 1517 1519 1524 1526 1528 1533
1460 1459 1456 1452 1449 1447 1444 1442 1441 1440 1442 1441 1440 1441 1442 1443 1445 1448 1451 1454 1458 1462 1465 1469 1470 1473 1476 1480 1484 1485 1488 1489 1493 1495 1498 1503 1505 1508 1513 1516 1519 1523 1527
1465 1463 1461 1458 1454 1450 1449 1447 1446 1445 1446 1443 1443 1443 1444 1444 1446 1449 1451 1453 1457 1459 1461 1464 1467 1471 1473 1478 1480 1482 1483 1483 1484 1488 1492 1494 1497 1502 1506 1510 1515 1519 1522
1468 1465 1462 1460 1458 1455 1453 1451 1450 1450 1447 1446 1445 1445 1446 1448 1449 1448 1451 1452 1455 1457 1459 1462 1465 1469 1473 1474 1476 1478 1479 1477 1479 1480 1484 1488 1492 1496 1501 1505 1510 1514 1517
1470 1467 1464 1461 1460 1459 1457 1454 1453 1452 1450 1448 1446 1445 1445 1446 1448 1449 1450 1453 1455 1456 1457 1460 1463 1466 1469 1470 1471 1474 1473 1474 1474 1474 1478 1482 1487 1490 1496 1503 1506 1509 1512
1474 1471 1467 1464 1462 1460 1458 1457 1457 1456 1454 1452 1449 1448 1447 1447 1446 1445 1446 1449 1451 1452 1455 1458 1459 1462 1464 1465 1466 1468 1467 1468 1467 1472 1473 1480 1483 1487 1493 1497 1500 1505 1507
1476 1473 1470 1466 1463 1460 1459 1458 1458 1456 1455 1454 1452 1449 1448 1447 1448 1449 1449 1450 1451 1451 1452 1453 1457 1458 1460 1459 1460 1462 1463 1465 1465 1469 1473 1475 1480 1483 1487 1492 1496 1500 1503
1478 1476 1472 1468 1464 1460 1458 1458 1456 1455 1454 1454 1452 1450 1447 1447 1447 1447 1448 1448 1448 1449 1450 1451 1451 1452 1454 1455 1458 1458 1460 1462 1465 1466 1470 1472 1476 1479 1483 1488 1492 1496 1499
1481 1479 1475 1470 1466 1461 1458 1459 1455 1456 1452 1452 1450 1446 1445 1445 1445 1446 1446 1447 1447 1446 1446 1447 1449 1450 1450 1452 1454 1455 1458 1460 1462 1465 1466 1468 1471 1474 1479 1484 1488 1492 1496
1484 1480 1476 1471 1468 1463 1461 1457 1456 1456 1451 1450 1446 1444 1444 1443 1443 1441 1442 1444 1445 1444 1445 1446 1446 1447 1448 1450 1451 1453 1455 1457 1459 1461 1463 1465 1468 1471 1476 1481 1484 1489 1493
1483 1481 1477 1472 1466 1462 1460 1459 1457 1455 1451 1450 1444 1443 1442 1441 1439 1439 1441 1442 1441 1441 1441 1442 1443 1444 1445 1446 1447 1448 1450 1452 1454 1457 1459 1462 1465 1469 1474 1477 1482 1486 1489
1486 1484 1477 1472 1468 1464 1462 1460 1456 1454 1455 1448 1446 1443 1440 1439 1439 1441 1440 1440 1440 1439 1439 1440 1441 1441 1442 1443 1444 1446 1447 1449 1451 1454 1456 1459 1462 1466 1471 1475 1478 1481 1485
1487 1481 1477 1474 1469 1466 1463 1460 1458 1457 1453 1449 1445 1442 1439 1439 1441 1439 1438 1437 1436 1435 1437 1438 1439 1439 1439 1440 1441 1444 1445 1447 1449 1451 1454 1456 1460 1464 1466 1470 1474 1479 1483